Regional Weather Roundup
Issued by NWS

Home | Current Version | Previous Version | Text Only | Print | Product List | Glossary On
Versions: 1 2 3 4 5 6 7 8 9 10 11 12 13 14 15 16 17 18 19 20 21 22 23 24 25 26 27 28 29 30 31 32 33 34 35 36 37 38 39 40 41 42 43 44 45 46 47 48 49 50
000
ASUS44 KJAN 291110
RWRMS

MISSISSIPPI HOURLY WEATHER ROUNDUP
NATIONAL WEATHER SERVICE JACKSON MS
600 AM CDT SAT APR 29 2017

NOTE: "FAIR: INDICATES FEW OR NO CLOUDS BELOW 12,000 FEET WITH NO
SIGNIFICANT WEATHER AND/OR OBSTRUCTIONS TO VISIBILITY.

MSZ001>002-007>008-010>013-018>021-025>028-034>036-291200-
NORTHWEST MISSISSIPPI

CITY           SKY/WX    TMP DP  RH WIND       PRES   REMARKS
CLARKSDALE     CLOUDY    75  73  94 MISG      29.84R
CLEVELAND      CLOUDY    75  73  95 S14       29.84R
GREENWOOD      CLOUDY    76  69  79 S15       29.86R
GREENVILLE     CLOUDY    75  68  78 S12       29.82R
OXFORD         MOCLDY    72  66  83 S6        29.90R
TUNICA         CLOUDY    72  68  88 S12       29.84R
WINONA         CLOUDY    73  69  87 S10       29.88R
$$

MSZ003>006-009-014>017-022>024-029>033-037>039-291200-
NORTHEAST MISSISSIPPI

CITY           SKY/WX    TMP DP  RH WIND       PRES   REMARKS
COLUMBUS AFB   MOCLDY    74  70  87 S10       29.92R
CORINTH        CLOUDY    75  66  73 S9G15     29.92R
GOLDN TRIANGLE CLOUDY    73  64  73 S12       29.89R FOG
STARKVILLE     CLOUDY    73  68  83 S6        29.93R
TUPELO         CLOUDY    75  68  78 SE13      29.91R
$$

MSZ040-058-291200-
CENTRAL MISSISSIPPI

CITY           SKY/WX    TMP DP  RH WIND       PRES   REMARKS
JACKSON INTL   CLOUDY    75  69  81 S13       29.87R
JACKSON HAWKNS CLOUDY    76  69  79 SE14G23   29.87R
MADISON        CLOUDY    73  68  83 S6        29.87R
MERIDIAN KEY   MOCLDY    75  71  87 S14       29.93R
MERIDIAN NAS   MOCLDY    74  67  78 SE6       29.93R
RAYMOND        PTSUNNY   75  72  88 S12G23    29.85R HAZE
VICKSBURG VKS    N/A     77  70  78 S15G23    29.80S
$$

MSZ059>079-291200-
SOUTH MISSISSIPPI

CITY           SKY/WX    TMP DP  RH WIND       PRES   REMARKS
HATTIESBURG    MOCLDY    75  71  87 S13       29.93S
LAUREL         CLOUDY    74  74 100 SE9G17    29.93S
MCCOMB         CLOUDY    76  70  82 S14G26    29.89S
NATCHEZ        CLOUDY    76  70  82 S22G29    29.82F
PINE BELT      CLOUDY    73  70  88 S10G16    29.93S
$$

MSZ080>082-291200-
COASTAL MISSISSIPPI

CITY           SKY/WX    TMP DP  RH WIND       PRES   REMARKS
BILOXI         MOCLDY    77  74  92 SE13G18   29.95R
PASCAGOULA     PTCLDY    75  72  90 SE13      29.97R
GULFPORT       CLOUDY    77  75  93 SE14      29.94S
$$

LAZ007>009-015>016-023>026-291200-
NORTHEAST LOUISIANA

CITY           SKY/WX    TMP DP  RH WIND       PRES   REMARKS
BASTROP        CLOUDY    76  73  90 S9G21     29.79R
TALLULAH/VBURG MOCLDY    75  69  81 S12       29.82S
VIDALIA        CLOUDY    77  70  79 S17G24    29.81S
$$



USA.gov is the U.S. government's official web portal to all federal, state and local government web resources and services.